This demonstration page uses our WeatherBlox Daily Observations layout. Learn more.

Left ArrowRight Arrow

39.51506, -84.39828

Hourly Observations for November 25, 2021

Temp ( °F °C ) Dew Point ( °F °C ) Humidity (%) Winds ( mph kmh ) Pressure ( in mb ) Visibility ( mi km ) Precip ( " mm )
12:15 am 00:15 Cloudy 51 10.6 25 -3.8 36 36 SSW 13 20 30.14 1021 10 16 0.00 0.00
12:35 am 00:35 Cloudy 51 10.4 26 -3.5 38 38 SW 9 15 30.14 1021 10 16 0.00 0.00
12:55 am 00:55 Cloudy 51 10.4 26 -3.4 38 38 SSW 9 15 30.14 1021 10 16 0.00 0.00
1:15 am 01:15 Cloudy 51 10.5 26 -3.5 38 38 SSW 9 15 30.14 1021 10 16 0.00 0.00
1:35 am 01:35 Cloudy 51 10.6 26 -3.6 37 37 SSW 10 17 30.13 1020 10 16 0.00 0.00
1:55 am 01:55 Cloudy 51 10.5 26 -3.3 38 38 SSW 9 15 30.13 1020 10 16 0.00 0.00
2:15 am 02:15 Cloudy 51 10.5 26 -3.3 38 38 SSW 8 13 30.13 1020 10 16 0.00 0.00
2:35 am 02:35 Cloudy 51 10.5 26 -3.2 38 38 SSW 8 13 30.13 1020 10 16 0.00 0.00
2:55 am 02:55 Cloudy 51 10.4 27 -3 39 39 SSW 8 13 30.12 1020 10 16 0.00 0.00
3:15 am 03:15 Cloudy 51 10.4 27 -2.9 40 40 SSW 9 15 30.12 1020 10 16 0.00 0.00
3:35 am 03:35 Cloudy 51 10.4 27 -2.6 40 40 SSW 7 11 30.12 1020 10 16 0.00 0.00
3:55 am 03:55 Cloudy 51 10.3 28 -2.2 42 42 SSW 8 13 30.11 1020 10 16 0.00 0.00
4:15 am 04:15 Cloudy 51 10.6 29 -1.9 42 42 SSW 8 13 30.10 1019 10 16 0.00 0.00
4:35 am 04:35 Cloudy 51 10.6 29 -1.7 43 43 SSW 9 15 30.09 1019 10 16 0.00 0.00
4:55 am 04:55 Cloudy 52 10.9 30 -1.3 43 43 SSW 7 11 30.09 1019 10 16 0.00 0.00
5:15 am 05:15 Cloudy with Light Rain 50 10.2 34 0.9 53 53 SW 9 15 30.09 1019 10 16 0.00 0.00
5:35 am 05:35 Cloudy 51 10.3 34 1.1 53 53 SSW 8 13 30.08 1019 10 16 0.00 0.00
5:55 am 05:55 Cloudy 51 10.5 35 1.7 55 55 SW 9 15 30.08 1019 10 16 0.00 0.00
6:15 am 06:15 Cloudy 51 10.5 36 2 56 56 SW 8 13 30.08 1019 10 16 0.00 0.00
6:35 am 06:35 Cloudy 51 10.6 36 2.2 56 56 SW 9 15 30.08 1019 10 16 0.00 0.00
6:55 am 06:55 Cloudy 51 10.3 37 2.7 60 60 SW 8 13 30.08 1019 10 16 0.00 0.00
7:15 am 07:15 Cloudy with Drizzle 49 9.6 39 4 68 68 WSW 12 19 30.09 1019 10 16 0.00 0.00
7:35 am 07:35 Cloudy with Light Rain 47 8.5 43 6 84 84 WSW 9 15 30.09 1019 7 11 0.00 0.00
7:55 am 07:55 Cloudy with Light Rain 47 8.3 44 6.4 88 88 WSW 7 11 30.08 1019 7 11 0.00 0.00
8:15 am 08:15 Cloudy with Light Rain 46 8 44 6.9 93 93 WSW 8 13 30.09 1019 5 8 0.01 0.25
8:35 am 08:35 Cloudy with Light Rain 47 8.1 45 7.1 93 93 WSW 10 17 30.09 1019 7 11 0.01 0.25
8:55 am 08:55 Cloudy with Light Rain 46 8 45 7.3 95 95 SW 9 15 30.09 1019 7 11 0.02 0.51
9:15 am 09:15 Cloudy with Light Rain 46 7.9 45 7.1 95 95 SW 9 15 30.09 1019 7 11 0.00 0.00
9:35 am 09:35 Cloudy with Light Rain 46 7.7 45 7 95 95 SW 9 15 30.07 1018 7 11 0.00 0.00
9:55 am 09:55 Cloudy with Light Rain 46 7.8 45 7.3 97 97 SSW 12 19 30.06 1018 7 11 0.00 0.00
10:15 am 10:15 Cloudy with Light Rain 46 8 46 7.5 97 97 SW 14 22 30.07 1018 7 11 0.01 0.25
10:35 am 10:35 Cloudy with Light Rain 47 8.1 46 7.6 97 97 SW 14 22 30.07 1018 10 16 0.01 0.25
10:55 am 10:55 Cloudy with Mist and Fog 47 8.1 46 7.6 97 97 WSW 13 20 30.07 1018 4 6 0.01 0.25
11:15 am 11:15 Cloudy with Light Rain 46 7.9 46 7.6 98 98 SW 14 22 30.06 1018 2 3 0.00 0.00
11:35 am 11:35 Cloudy with Mist and Fog 46 7.7 45 7.4 98 98 SW 15 24 30.06 1018 4 6 0.00 0.00
11:55 am 11:55 Cloudy with Mist and Fog 46 7.7 45 7.4 98 98 WSW 14 22 30.05 1018 7 11 0.00 0.00
12:15 pm 12:15 Cloudy with Mist and Fog 46 7.7 45 7.4 98 98 WSW 14 22 30.04 1017 5 8 0.00 0.00
12:35 pm 12:35 Cloudy 46 7.7 46 7.5 99 99 WSW 10 17 30.04 1017 7 11 0.00 0.00
12:55 pm 12:55 Cloudy 46 7.9 46 7.5 97 97 WSW 13 20 30.03 1017 10 16 0.00 0.00
1:15 pm 13:15 Cloudy 46 8 46 7.6 97 97 WSW 14 22 30.02 1017 10 16 0.00 0.00
1:35 pm 13:35 Cloudy 47 8.1 46 7.7 97 97 WSW 12 19 30.02 1017 10 16 0.00 0.00
1:55 pm 13:55 Cloudy 47 8.2 46 7.8 97 97 WSW 12 19 30.01 1016 10 16 0.00 0.00
2:15 pm 14:15 Cloudy 47 8.2 46 7.8 97 97 WSW 9 15 30.01 1016 10 16 0.00 0.00
2:35 pm 14:35 Cloudy with Mist and Fog 47 8.3 46 8 98 98 WSW 8 13 30.01 1016 5 8 0.00 0.00
2:55 pm 14:55 Cloudy with Mist and Fog 47 8.3 47 8.2 99 99 WSW 9 15 30.00 1016 4 6 0.00 0.00
3:15 pm 15:15 Cloudy with Mist and Fog 47 8.5 47 8.4 99 99 WSW 8 13 29.99 1016 3 4 0.00 0.00
3:35 pm 15:35 Cloudy with Mist and Fog 47 8.6 47 8.5 99 99 WSW 9 15 30.00 1016 5 8 0.00 0.00
3:55 pm 15:55 Cloudy 48 8.9 47 8.6 98 98 W 7 11 30.00 1016 10 16 0.00 0.00
4:15 pm 16:15 Cloudy 48 8.9 45 7.3 90 90 WNW 15 24 30.02 1017 10 16 0.00 0.00
4:35 pm 16:35 Cloudy 46 8 42 5.8 86 86 NW 12 19 30.03 1017 10 16 0.00 0.00
4:55 pm 16:55 Cloudy 45 7.4 41 5.1 86 86 WNW 15 24 30.05 1017 10 16 0.00 0.00
5:15 pm 17:15 Cloudy 44 6.8 41 5 88 88 WNW 16 26 30.06 1018 10 16 0.00 0.00
5:35 pm 17:35 Cloudy 44 6.4 41 4.9 90 90 WNW 13 20 30.06 1018 10 16 0.00 0.00
5:55 pm 17:55 Cloudy 43 6.1 40 4.5 90 90 NW 10 17 30.07 1018 10 16 0.00 0.00
6:15 pm 18:15 Cloudy 43 5.9 40 4.5 91 91 WNW 9 15 30.07 1018 10 16 0.00 0.00
6:35 pm 18:35 Cloudy 42 5.8 40 4.4 91 91 WNW 13 20 30.08 1019 10 16 0.00 0.00
6:55 pm 18:55 Cloudy 42 5.7 40 4.4 91 91 WNW 14 22 30.08 1019 10 16 0.00 0.00
7:15 pm 19:15 Cloudy 42 5.6 40 4.4 92 92 WNW 13 20 30.08 1019 10 16 0.00 0.00
7:35 pm 19:35 Cloudy 42 5.4 40 4.5 94 94 WNW 10 17 30.09 1019 7 11 0.00 0.00
7:55 pm 19:55 Cloudy with Mist and Fog 42 5.3 40 4.5 95 95 WNW 12 19 30.09 1019 7 11 0.00 0.00
8:15 pm 20:15 Cloudy with Mist and Fog 41 5.1 40 4.3 95 95 WNW 10 17 30.09 1019 5 8 0.00 0.00
8:35 pm 20:35 Cloudy with Mist and Fog 41 4.9 40 4.2 95 95 WNW 13 20 30.09 1019 7 11 0.00 0.00
8:55 pm 20:55 Cloudy with Mist and Fog 40 4.6 39 3.8 95 95 WNW 13 20 30.09 1019 7 11 0.00 0.00
9:15 pm 21:15 Cloudy with Mist and Fog 40 4.4 38 3.4 93 93 NW 14 22 30.09 1019 7 11 0.00 0.00
9:35 pm 21:35 Cloudy 40 4.3 38 3.2 93 93 NW 14 22 30.10 1019 10 16 0.00 0.00
9:55 pm 21:55 Cloudy 39 4 36 2 87 87 NW 16 26 30.10 1019 10 16 0.00 0.00
10:15 pm 22:15 Cloudy 38 3.5 35 1.9 89 89 WNW 16 26 30.12 1020 10 16 0.00 0.00
10:35 pm 22:35 Cloudy 37 3 35 1.6 91 91 NW 14 22 30.12 1020 7 11 0.00 0.00
10:55 pm 22:55 Cloudy 37 2.9 34 0.9 87 87 WNW 18 30 30.12 1020 10 16 0.00 0.00
11:15 pm 23:15 Cloudy 37 2.5 32 0.2 85 85 NW 18 30 30.13 1020 10 16 0.00 0.00
11:35 pm 23:35 Cloudy 36 2.4 32 -0.1 84 84 NW 10 17 30.13 1020 10 16 0.00 0.00
11:55 pm 23:55 Cloudy 36 2.2 31 -0.6 82 82 NW 12 19 30.13 1020 10 16 0.00 0.00

Powered by AerisWeather